Вернуться в каталог

STARLINK-38239

АктивенСвязьSSO
NORAD 100314·PAYLOAD·🇺🇸 United States

Запущен Aug 12, 2026 с Vandenberg Space Force Base

Loading…

Ближайшие Пролёты (ближайшие 24 часа)

TLE

СвежийSource: Space-Track

Эпоха: Sep 14, 2026, 13:59 UTC

1 A0314U 26184P   26257.58304743  .00021746  00000-0  67439-3 0  9997
2 A0314  97.2837 122.7877 0001205  81.7998 278.3381 15.33425604  6450

Отслеживайте STARLINK-38239 в реальном времени с AllMySat

Download on the App Store